Regional Weather Roundup
Issued by NWS

Home | Current Version | Previous Version | Graphics & Text | Print | Product List | Glossary Off
Versions: 1 2 3 4 5 6 7 8 9 10 11 12 13 14 15 16 17 18 19 20 21 22 23 24 25 26 27 28 29 30 31 32 33 34 35 36 37 38 39 40 41 42 43 44 45 46 47 48 49 50

000
ASUS44 KMEG 040710
RWRTN
TENNESSEE HOURLY STATE WEATHER ROUNDUP
NATIONAL WEATHER SERVICE MEMPHIS TN
200 AM CDT MON MAY 04 2015

TNZ002-004-019-021-049-052-054-088>092-040800-
WEST TENNESSEE

CITY           SKY/WX    TMP DP  RH WIND       PRES   REMARKS
MEMPHIS INTL   CLEAR     63  53  70 S7        30.06F
NWS MEMPHIS      N/A     66 N/A N/A MISG        N/A
JACKSON        CLEAR     66  51  58 S7        30.08S
DYERSBURG      CLEAR     64  43  45 S6        30.08R
PARIS          CLEAR     61  48  63 S6        30.10R
LEXINGTON      CLEAR     54  52  94 CALM      30.10R
$$

TNZ008-025-027-028-033-062-065-066-040800-
NORTH MIDDLE TENNESSEE

CITY           SKY/WX    TMP DP  RH WIND       PRES   REMARKS
NASHVILLE      CLEAR     59  50  72 S5        30.13S
CLARKSVILLE    CLEAR     57  51  80 SE3       30.10R
SMYRNA         CLEAR     55  50  83 CALM      30.14S
COOKEVILLE     CLEAR     48  48 100 CALM      30.15S
CROSSVILLE     CLEAR     57  44  62 CALM      30.19F
$$

TNZ061-075-076-078-094-096-097-040800-
SOUTH MIDDLE TENNESSEE

CITY           SKY/WX    TMP DP  RH WIND       PRES   REMARKS
FAYETTEVILLE     N/A     59  48  67 S3        30.15F
TULLAHOMA      CLEAR     52  46  82 CALM      30.16F
WINCHESTER     CLEAR     55  48  76 SE3       30.16F
MCMINNVILLE    CLEAR     52  52 100 CALM      30.16S
COLUMBIA       CLEAR     54  52  94 CALM      30.11S
SHELBYVILLE    CLEAR     55  52  88 SE3       30.15F
$$

TNZ017-018-042-046-047-040800-
NORTHEAST TENNESSEE

CITY           SKY/WX    TMP DP  RH WIND       PRES   REMARKS
TRI CITIES     MOCLDY    54  48  80 CALM      30.20F
ELIZABETHTON   PTSUNNY   52  45  76 CALM      30.21F
$$

TNZ012-013-036-069-073-074-040800-
CENTRAL EAST TENNESSEE

CITY           SKY/WX    TMP DP  RH WIND       PRES   REMARKS
KNOXVILLE      CLEAR     58  50  75 CALM      30.17S
OAK RIDGE      CLEAR     54  50  86 CALM      30.19S
GATLINBURG     SUNNY     52  48  87 CALM      30.18S
MORRISTOWN     SUNNY     55  48  76 CALM      30.20S
$$

TNZ083-085-099-040800-
SOUTHEAST TENNESSEE

CITY           SKY/WX    TMP DP  RH WIND       PRES   REMARKS
CHATTANOOGA    CLEAR     57  51  80 CALM      30.17F
$$

SKY/WX REPORTED AS FAIR MEANS FEW OR NO CLOUDS BELOW
12 THOUSAND FEET.




USA.gov is the U.S. government's official web portal to all federal, state and local government web resources and services.